Flag for Austria Weather past 2 weeks in Ternitz, Lower Austria, Austria

Now
67 °F

Mild.


Feels Like: 67 °F
Forecast: 62 / 89 °F
Wind: 2 mph from Northwest

Location: Eisenstadt

Current Time: Jul 5, 2015 at 2:36:57 AM

Latest Report: Jul 5, 2015 at 1:00 AM


Visibility: N/A

Pressure: 30.13 "Hg

Humidity: 68%

Dew point: 56 °F

Location of TernitzLocation

Historic Weather in Ternitz — Graph

°F

Ternitz temperature yesterday

Maximum temperature yesterday: 89 °F (at 3:00 PM)
Minimum temperature yesterday: 65 °F (at 5:00 AM)
Average temperature yesterday: 77 °F

Past Weeks' High & Low Weather Summary

 TemperatureHumidityPressure
High89 °F (Jul 4, 3:00 PM)95% (Jun 23, 5:00 AM)30.29 "Hg (Jun 23, 5:00 AM)
Low51 °F (Jun 21, 6:00 AM)28% (Jul 4, 5:00 PM)29.77 "Hg (Jun 23, 4:00 AM)
Average67 °F60%30.09 "Hg
* Reported Jun 20 2:00 AM — Jul 5 1:00 AM, Ternitz, Weather by CustomWeather, © 2015

Note: Actual official high and low records may vary slightly from our data, if they occured in-between our weather recording intervals... More about our weather records

Advertising

Ternitz weather history for previous 24 hours

 ConditionsComfort  
Time TempWeatherWind HumidityBarometerVisibility
1:00 AM
Sun, Jul 5
67 °FMild.2 mph68%30.13 "HgN/A
12:00 AM69 °FMild.2 mph65%30.13 "HgN/A
11:00 PM
Sat, Jul 4
70 °FClear.5 mph63%30.14 "Hg16 mi
10:00 PM71 °FMild.3 mph60%30.14 "HgN/A
9:00 PM74 °FMild.3 mph59%30.13 "HgN/A
8:00 PM83 °FSunny.2 mph41%30.11 "Hg16 mi
7:00 PM87 °FSunny.5 mph32%30.11 "Hg16 mi
6:00 PM87 °FPleasantly warm.5 mph30%30.11 "HgN/A
5:00 PM89 °FHot.5 mph28%30.13 "HgN/A
4:00 PM89 °FHot.5 mph29%30.14 "HgN/A
3:00 PM89 °FHot.6 mph30%30.14 "HgN/A
2:00 PM87 °FPleasantly warm.3 mph31%30.16 "HgN/A
1:00 PM86 °FPleasantly warm.5 mph30%30.18 "HgN/A
12:00 PM86 °FPleasantly warm.6 mph30%30.19 "HgN/A
11:00 AM85 °FPleasantly warm.7 mph32%30.20 "HgN/A
10:00 AM81 °FWarm.3 mph48%30.21 "HgN/A
9:00 AM76 °FMild.3 mph61%30.22 "HgN/A
8:00 AM74 °FMild.2 mph62%30.23 "HgN/A
7:00 AM70 °FSunny.2 mph71%30.23 "Hg12 mi
6:00 AM65 °FSunny.2 mph76%30.24 "Hg12 mi
5:00 AM65 °FSunny.3 mph75%30.24 "Hg12 mi
4:00 AM67 °FClear.2 mph71%30.25 "Hg12 mi
3:00 AM66 °FMild.2 mph73%30.25 "HgN/A
2:00 AM66 °FClear.3 mph78%30.27 "Hg12 mi
Weather by CustomWeather, © 2015

See weather overviewHow to use our weather pages